Вернуться в каталог

CENTAURI-1

АктивенСвязьSSO
NORAD 43809·PAYLOAD·🇦🇺 Australia

Запущен Dec 3, 2018 с Vandenberg Space Force Base

Loading…

Ближайшие Пролёты (ближайшие 24 часа)

TLE

СвежийSource: Space-Track

Эпоха: Sep 14, 2026, 14:20 UTC

1 43809U 18099BD  26257.59791061  .00003905  00000-0  19974-3 0  9991
2 43809  97.4128 307.4020 0014340  23.9141 336.2756 15.17135987426051

Отслеживайте CENTAURI-1 в реальном времени с AllMySat

Download on the App Store